Wetterdaten: aktuell Freitag, 19.07.2019 14:36
Datum Zeit Temperatur Feuchte A. Luftdruck Regen Wind Richtung Richtung Sonnenschein ET Solar Taupunkt Windchill Windben
19.07.2019 14:36 24,8 C 52 % 1014,2 hPa 0,0 l/m 6,7 km/h (2 Bft) O-SO 116 0 min 0,000 mm 418 W/m 14,3 C 24,8 C 12,9 km/h (3 Bft)
19.07.2019 14:35 24,9 C 53 % 1014,2 hPa 0,0 l/m 14,2 km/h (3 Bft) SO 142 0 min 0,000 mm 425 W/m 14,6 C 24,9 C 14,5 km/h (3 Bft)
19.07.2019 14:34 24,9 C 51 % 1014,2 hPa 0,0 l/m 7,6 km/h (2 Bft) S-SO 168 0 min 0,000 mm 413 W/m 14,1 C 24,9 C 11,3 km/h (2 Bft)
19.07.2019 14:33 25,0 C 52 % 1014,2 hPa 0,0 l/m 9,0 km/h (2 Bft) SO 145 0 min 0,000 mm 441 W/m 14,4 C 25,0 C 14,5 km/h (3 Bft)
19.07.2019 14:32 25,1 C 51 % 1014,2 hPa 0,0 l/m 7,9 km/h (2 Bft) O 99 1 min 0,000 mm 499 W/m 14,2 C 25,1 C 11,3 km/h (2 Bft)
19.07.2019 14:31 24,9 C 54 % 1014,2 hPa 0,0 l/m 10,8 km/h (2 Bft) S-SO 153 1 min 0,000 mm 540 W/m 14,9 C 24,9 C 12,9 km/h (3 Bft)
19.07.2019 14:30 24,8 C 54 % 1014,2 hPa 0,0 l/m 5,6 km/h (2 Bft) S 173 1 min 0,000 mm 698 W/m 14,8 C 24,8 C 12,9 km/h (3 Bft)
19.07.2019 14:29 24,8 C 52 % 1014,2 hPa 0,0 l/m 6,0 km/h (2 Bft) SO 126 2 min 0,000 mm 698 W/m 14,3 C 24,8 C 9,7 km/h (2 Bft)
19.07.2019 14:27 24,8 C 52 % 1014,2 hPa 0,0 l/m 10,2 km/h (2 Bft) S-SO 152 1 min 0,000 mm 554 W/m 14,3 C 24,8 C 12,9 km/h (3 Bft)
19.07.2019 14:26 24,8 C 52 % 1014,3 hPa 0,0 l/m 13,6 km/h (3 Bft) S-SO 156 1 min 0,000 mm 592 W/m 14,3 C 24,8 C 16,1 km/h (3 Bft)
19.07.2019 14:25 24,8 C 53 % 1014,3 hPa 0,0 l/m 12,7 km/h (3 Bft) S-SO 163 1 min 0,000 mm 515 W/m 14,6 C 24,8 C 16,1 km/h (3 Bft)
19.07.2019 14:24 24,7 C 54 % 1014,3 hPa 0,0 l/m 12,8 km/h (3 Bft) S-SO 153 1 min 0,000 mm 561 W/m 14,8 C 24,7 C 16,1 km/h (3 Bft)
19.07.2019 14:23 24,6 C 54 % 1014,2 hPa 0,0 l/m 10,5 km/h (2 Bft) S-SO 161 1 min 0,000 mm 504 W/m 14,7 C 24,6 C 12,9 km/h (3 Bft)
19.07.2019 14:22 24,4 C 53 % 1014,2 hPa 0,0 l/m 7,1 km/h (2 Bft) S-SO 160 0 min 0,000 mm 439 W/m 14,2 C 24,4 C 11,3 km/h (2 Bft)
19.07.2019 14:21 24,3 C 52 % 1014,2 hPa 0,0 l/m 9,2 km/h (2 Bft) W-SW 245 1 min 0,000 mm 466 W/m 13,8 C 24,3 C 11,3 km/h (2 Bft)
19.07.2019 14:20 24,3 C 53 % 1014,2 hPa 0,0 l/m 10,5 km/h (2 Bft) W-SW 250 1 min 0,000 mm 543 W/m 14,1 C 24,3 C 12,9 km/h (3 Bft)
19.07.2019 14:19 24,3 C 53 % 1014,2 hPa 0,0 l/m 4,7 km/h (1 Bft) S-SW 206 0 min 0,000 mm 457 W/m 14,1 C 24,3 C 8,0 km/h (2 Bft)
19.07.2019 14:18 24,4 C 53 % 1014,2 hPa 0,0 l/m 9,1 km/h (2 Bft) S-SW 202 0 min 0,000 mm 446 W/m 14,2 C 24,4 C 14,5 km/h (3 Bft)
19.07.2019 14:17 24,5 C 55 % 1014,2 hPa 0,0 l/m 9,2 km/h (2 Bft) S-SO 166 0 min 0,000 mm 439 W/m 14,9 C 24,5 C 11,3 km/h (2 Bft)
19.07.2019 14:16 24,4 C 53 % 1014,3 hPa 0,0 l/m 9,4 km/h (2 Bft) S-SO 159 0 min 0,000 mm 448 W/m 14,2 C 24,4 C 12,9 km/h (3 Bft)
19.07.2019 14:15 24,3 C 54 % 1014,3 hPa 0,0 l/m 9,5 km/h (2 Bft) S-SW 198 1 min 0,000 mm 489 W/m 14,4 C 24,3 C 12,9 km/h (3 Bft)
19.07.2019 14:14 24,2 C 54 % 1014,3 hPa 0,0 l/m 8,1 km/h (2 Bft) S-SO 157 1 min 0,000 mm 476 W/m 14,3 C 24,2 C 9,7 km/h (2 Bft)
19.07.2019 14:13 24,1 C 56 % 1014,3 hPa 0,0 l/m 7,6 km/h (2 Bft) SW 222 1 min 0,000 mm 483 W/m 14,8 C 24,1 C 9,7 km/h (2 Bft)
19.07.2019 14:12 23,9 C 54 % 1014,3 hPa 0,0 l/m 6,2 km/h (2 Bft) S-SW 212 2 min 0,000 mm 475 W/m 14,0 C 23,9 C 12,9 km/h (3 Bft)
19.07.2019 14:10 23,8 C 54 % 1014,3 hPa 0,0 l/m 6,4 km/h (2 Bft) W-SW 252 1 min 0,000 mm 501 W/m 13,9 C 23,8 C 8,0 km/h (2 Bft)
19.07.2019 14:09 23,8 C 53 % 1014,4 hPa 0,0 l/m 8,0 km/h (2 Bft) W-SW 254 1 min 0,000 mm 512 W/m 13,6 C 23,8 C 11,3 km/h (2 Bft)
19.07.2019 14:08 23,9 C 53 % 1014,3 hPa 0,0 l/m 8,3 km/h (2 Bft) W 266 2 min 0,000 mm 494 W/m 13,7 C 23,9 C 12,9 km/h (3 Bft)
19.07.2019 14:06 23,8 C 54 % 1014,4 hPa 0,0 l/m 7,2 km/h (2 Bft) W 278 0 min 0,000 mm 469 W/m 13,9 C 23,8 C 9,7 km/h (2 Bft)
19.07.2019 14:05 23,8 C 53 % 1014,4 hPa 0,0 l/m 9,1 km/h (2 Bft) W 279 0 min 0,000 mm 454 W/m 13,6 C 23,8 C 11,3 km/h (2 Bft)
19.07.2019 14:04 23,9 C 52 % 1014,4 hPa 0,0 l/m 5,5 km/h (2 Bft) W-SW 237 0 min 0,000 mm 459 W/m 13,4 C 23,9 C 8,0 km/h (2 Bft)
19.07.2019 14:03 23,9 C 53 % 1014,4 hPa 0,0 l/m 10,1 km/h (2 Bft) W-SW 244 2 min 0,000 mm 485 W/m 13,7 C 23,9 C 16,1 km/h (3 Bft)
19.07.2019 14:01 24,0 C 52 % 1014,5 hPa 0,0 l/m 12,3 km/h (2 Bft) W-SW 251 0 min 0,330 mm 432 W/m 13,5 C 24,0 C 16,1 km/h (3 Bft)
19.07.2019 14:00 24,0 C 54 % 1014,5 hPa 0,0 l/m 7,8 km/h (2 Bft) W-SW 253 0 min 0,000 mm 441 W/m 14,1 C 24,0 C 14,5 km/h (3 Bft)
19.07.2019 13:59 23,9 C 52 % 1014,5 hPa 0,0 l/m 5,3 km/h (1 Bft) S-SW 207 0 min 0,000 mm 452 W/m 13,4 C 23,9 C 8,0 km/h (2 Bft)
19.07.2019 13:58 24,1 C 54 % 1014,4 hPa 0,0 l/m 7,6 km/h (2 Bft) W-SW 252 0 min 0,000 mm 461 W/m 14,2 C 24,1 C 9,7 km/h (2 Bft)
19.07.2019 13:57 24,1 C 53 % 1014,4 hPa 0,0 l/m 9,3 km/h (2 Bft) S 182 1 min 0,000 mm 492 W/m 13,9 C 24,1 C 12,9 km/h (3 Bft)
19.07.2019 13:56 24,1 C 52 % 1014,5 hPa 0,0 l/m 8,5 km/h (2 Bft) S-SO 163 1 min 0,000 mm 526 W/m 13,6 C 24,1 C 12,9 km/h (3 Bft)
19.07.2019 13:55 24,2 C 51 % 1014,5 hPa 0,0 l/m 11,0 km/h (2 Bft) S-SW 198 1 min 0,000 mm 522 W/m 13,4 C 24,2 C 17,7 km/h (3 Bft)
19.07.2019 13:54 24,3 C 52 % 1014,5 hPa 0,0 l/m 10,3 km/h (2 Bft) S-SW 213 1 min 0,000 mm 534 W/m 13,8 C 24,3 C 14,5 km/h (3 Bft)
19.07.2019 13:53 24,4 C 52 % 1014,5 hPa 0,0 l/m 13,3 km/h (3 Bft) S 190 1 min 0,000 mm 591 W/m 13,9 C 24,4 C 17,7 km/h (3 Bft)
19.07.2019 13:52 24,3 C 54 % 1014,5 hPa 0,0 l/m 14,2 km/h (3 Bft) S 182 1 min 0,000 mm 596 W/m 14,4 C 24,3 C 16,1 km/h (3 Bft)
19.07.2019 13:51 24,1 C 53 % 1014,4 hPa 0,0 l/m 11,7 km/h (2 Bft) S 171 1 min 0,000 mm 573 W/m 13,9 C 24,1 C 14,5 km/h (3 Bft)
19.07.2019 13:50 24,1 C 52 % 1014,4 hPa 0,0 l/m 12,2 km/h (2 Bft) S 177 1 min 0,000 mm 557 W/m 13,6 C 24,1 C 17,7 km/h (3 Bft)
19.07.2019 13:49 24,1 C 55 % 1014,5 hPa 0,0 l/m 9,3 km/h (2 Bft) S-SW 197 1 min 0,000 mm 492 W/m 14,5 C 24,1 C 17,7 km/h (3 Bft)
19.07.2019 13:48 23,9 C 54 % 1014,5 hPa 0,0 l/m 9,1 km/h (2 Bft) S 182 1 min 0,000 mm 476 W/m 14,0 C 23,9 C 12,9 km/h (3 Bft)
19.07.2019 13:47 23,8 C 53 % 1014,5 hPa 0,0 l/m 8,9 km/h (2 Bft) S 185 1 min 0,000 mm 515 W/m 13,6 C 23,8 C 14,5 km/h (3 Bft)
19.07.2019 13:46 23,8 C 54 % 1014,5 hPa 0,0 l/m 8,1 km/h (2 Bft) W-SW 239 1 min 0,000 mm 478 W/m 13,9 C 23,8 C 9,7 km/h (2 Bft)
19.07.2019 13:45 23,8 C 54 % 1014,5 hPa 0,0 l/m 6,8 km/h (2 Bft) SW 230 1 min 0,000 mm 485 W/m 13,9 C 23,8 C 11,3 km/h (2 Bft)
19.07.2019 13:44 23,8 C 54 % 1014,5 hPa 0,0 l/m 8,8 km/h (2 Bft) S 169 0 min 0,000 mm 431 W/m 13,9 C 23,8 C 12,9 km/h (3 Bft)
19.07.2019 13:43 23,8 C 54 % 1014,5 hPa 0,0 l/m 10,1 km/h (2 Bft) S 178 0 min 0,000 mm 420 W/m 13,9 C 23,8 C 14,5 km/h (3 Bft)
19.07.2019 13:41 23,7 C 55 % 1014,4 hPa 0,0 l/m 7,1 km/h (2 Bft) S-SO 161 0 min 0,000 mm 392 W/m 14,1 C 23,7 C 9,7 km/h (2 Bft)
19.07.2019 13:40 23,7 C 55 % 1014,4 hPa 0,0 l/m 7,7 km/h (2 Bft) S-SW 194 0 min 0,000 mm 385 W/m 14,1 C 23,7 C 11,3 km/h (2 Bft)
19.07.2019 13:39 23,7 C 54 % 1014,4 hPa 0,0 l/m 11,1 km/h (2 Bft) S-SW 193 0 min 0,000 mm 380 W/m 13,8 C 23,7 C 14,5 km/h (3 Bft)
19.07.2019 13:38 23,6 C 54 % 1014,4 hPa 0,0 l/m 12,6 km/h (3 Bft) S-SO 162 0 min 0,000 mm 360 W/m 13,7 C 23,6 C 16,1 km/h (3 Bft)
19.07.2019 13:37 23,5 C 57 % 1014,4 hPa 0,0 l/m 12,3 km/h (2 Bft) S 170 0 min 0,000 mm 352 W/m 14,5 C 23,5 C 16,1 km/h (3 Bft)
19.07.2019 13:36 23,4 C 55 % 1014,4 hPa 0,0 l/m 8,6 km/h (2 Bft) S 182 0 min 0,000 mm 345 W/m 13,8 C 23,4 C 11,3 km/h (2 Bft)
19.07.2019 13:35 23,3 C 55 % 1014,5 hPa 0,0 l/m 9,2 km/h (2 Bft) S-SO 163 0 min 0,000 mm 338 W/m 13,7 C 23,3 C 11,3 km/h (2 Bft)
19.07.2019 13:34 23,2 C 55 % 1014,5 hPa 0,0 l/m 5,8 km/h (2 Bft) S 190 0 min 0,000 mm 332 W/m 13,6 C 23,2 C 8,0 km/h (2 Bft)
19.07.2019 13:33 23,2 C 55 % 1014,5 hPa 0,0 l/m 4,6 km/h (1 Bft) W-SW 239 0 min 0,000 mm 327 W/m 13,6 C 23,2 C 6,4 km/h (2 Bft)
19.07.2019 13:32 23,2 C 53 % 1014,5 hPa 0,0 l/m 5,5 km/h (2 Bft) W 271 0 min 0,000 mm 323 W/m 13,1 C 23,2 C 9,7 km/h (2 Bft)
19.07.2019 13:31 23,3 C 53 % 1014,5 hPa 0,0 l/m 6,6 km/h (2 Bft) W-SW 246 0 min 0,000 mm 325 W/m 13,2 C 23,3 C 8,0 km/h (2 Bft)
19.07.2019 13:30 23,3 C 52 % 1014,5 hPa 0,0 l/m 6,7 km/h (2 Bft) W-SW 246 0 min 0,000 mm 327 W/m 12,9 C 23,3 C 9,7 km/h (2 Bft)
19.07.2019 13:29 23,4 C 54 % 1014,5 hPa 0,0 l/m 8,5 km/h (2 Bft) W-SW 257 0 min 0,000 mm 334 W/m 13,6 C 23,4 C 11,3 km/h (2 Bft)
19.07.2019 13:28 23,5 C 53 % 1014,5 hPa 0,0 l/m 7,3 km/h (2 Bft) SW 227 0 min 0,000 mm 334 W/m 13,4 C 23,5 C 9,7 km/h (2 Bft)
19.07.2019 13:27 23,6 C 52 % 1014,6 hPa 0,0 l/m 8,2 km/h (2 Bft) SW 215 0 min 0,000 mm 334 W/m 13,2 C 23,6 C 11,3 km/h (2 Bft)
19.07.2019 13:26 23,7 C 53 % 1014,6 hPa 0,0 l/m 8,5 km/h (2 Bft) SW 226 0 min 0,000 mm 341 W/m 13,5 C 23,7 C 12,9 km/h (3 Bft)
19.07.2019 13:25 23,6 C 55 % 1014,6 hPa 0,0 l/m 11,7 km/h (2 Bft) S-SW 210 0 min 0,000 mm 348 W/m 14,0 C 23,6 C 14,5 km/h (3 Bft)
19.07.2019 13:24 23,6 C 55 % 1014,5 hPa 0,0 l/m 10,5 km/h (2 Bft) S 189 0 min 0,000 mm 353 W/m 14,0 C 23,6 C 14,5 km/h (3 Bft)
19.07.2019 13:23 23,4 C 54 % 1014,6 hPa 0,0 l/m 7,5 km/h (2 Bft) S-SW 212 0 min 0,000 mm 362 W/m 13,6 C 23,4 C 11,3 km/h (2 Bft)
19.07.2019 13:22 23,4 C 54 % 1014,6 hPa 0,0 l/m 3,6 km/h (1 Bft) S-SW 212 0 min 0,000 mm 364 W/m 13,6 C 23,4 C 9,7 km/h (2 Bft)
19.07.2019 13:20 23,6 C 53 % 1014,6 hPa 0,0 l/m 5,0 km/h (1 Bft) W 281 0 min 0,000 mm 392 W/m 13,4 C 23,6 C 8,0 km/h (2 Bft)
19.07.2019 13:19 23,7 C 52 % 1014,6 hPa 0,0 l/m 6,7 km/h (2 Bft) W 265 0 min 0,000 mm 394 W/m 13,2 C 23,7 C 9,7 km/h (2 Bft)
19.07.2019 13:18 23,8 C 53 % 1014,6 hPa 0,0 l/m 5,0 km/h (1 Bft) W 259 0 min 0,000 mm 417 W/m 13,6 C 23,8 C 6,4 km/h (2 Bft)
19.07.2019 13:17 23,8 C 53 % 1014,6 hPa 0,0 l/m 5,0 km/h (1 Bft) S-SW 206 0 min 0,000 mm 422 W/m 13,6 C 23,8 C 8,0 km/h (2 Bft)
19.07.2019 13:16 23,9 C 51 % 1014,6 hPa 0,0 l/m 4,1 km/h (1 Bft) S-SW 208 0 min 0,000 mm 466 W/m 13,1 C 23,9 C 8,0 km/h (2 Bft)
19.07.2019 13:15 23,9 C 52 % 1014,7 hPa 0,0 l/m 8,1 km/h (2 Bft) S-SW 211 0 min 0,000 mm 466 W/m 13,4 C 23,9 C 11,3 km/h (2 Bft)
19.07.2019 13:14 23,9 C 53 % 1014,7 hPa 0,0 l/m 11,9 km/h (2 Bft) S-SW 197 1 min 0,000 mm 508 W/m 13,7 C 23,9 C 16,1 km/h (3 Bft)
19.07.2019 13:13 23,9 C 53 % 1014,7 hPa 0,0 l/m 15,3 km/h (3 Bft) S-SW 200 1 min 0,000 mm 563 W/m 13,7 C 23,9 C 19,3 km/h (3 Bft)
19.07.2019 13:12 23,9 C 52 % 1014,6 hPa 0,0 l/m 13,7 km/h (3 Bft) S-SW 194 1 min 0,000 mm 645 W/m 13,4 C 23,9 C 17,7 km/h (3 Bft)
19.07.2019 13:11 23,9 C 54 % 1014,6 hPa 0,0 l/m 14,2 km/h (3 Bft) S-SW 200 1 min 0,000 mm 568 W/m 14,0 C 23,9 C 19,3 km/h (3 Bft)
19.07.2019 13:10 23,9 C 52 % 1014,6 hPa 0,0 l/m 10,1 km/h (2 Bft) SW 223 1 min 0,000 mm 506 W/m 13,4 C 23,9 C 16,1 km/h (3 Bft)
19.07.2019 13:09 23,9 C 53 % 1014,7 hPa 0,0 l/m 13,5 km/h (3 Bft) SW 232 1 min 0,000 mm 594 W/m 13,7 C 23,9 C 16,1 km/h (3 Bft)
19.07.2019 13:08 24,0 C 52 % 1014,7 hPa 0,0 l/m 9,9 km/h (2 Bft) SW 221 1 min 0,000 mm 494 W/m 13,5 C 24,0 C 12,9 km/h (3 Bft)
19.07.2019 13:07 23,9 C 53 % 1014,7 hPa 0,0 l/m 4,9 km/h (1 Bft) SW 229 1 min 0,000 mm 517 W/m 13,7 C 23,9 C 9,7 km/h (2 Bft)
19.07.2019 13:06 23,8 C 55 % 1014,7 hPa 0,0 l/m 4,8 km/h (1 Bft) S 171 1 min 0,000 mm 570 W/m 14,2 C 23,8 C 8,0 km/h (2 Bft)
19.07.2019 13:05 23,7 C 55 % 1014,7 hPa 0,0 l/m 7,1 km/h (2 Bft) SW 219 1 min 0,000 mm 504 W/m 14,1 C 23,7 C 9,7 km/h (2 Bft)
19.07.2019 13:04 23,6 C 54 % 1014,7 hPa 0,0 l/m 8,5 km/h (2 Bft) S 190 1 min 0,000 mm 480 W/m 13,7 C 23,6 C 11,3 km/h (2 Bft)
19.07.2019 13:03 23,6 C 54 % 1014,7 hPa 0,0 l/m 9,0 km/h (2 Bft) SW 216 2 min 0,000 mm 489 W/m 13,7 C 23,6 C 11,3 km/h (2 Bft)
19.07.2019 13:01 23,6 C 54 % 1014,7 hPa 0,0 l/m 5,2 km/h (1 Bft) SW 232 1 min 0,000 mm 480 W/m 13,7 C 23,6 C 8,0 km/h (2 Bft)
19.07.2019 13:00 23,7 C 52 % 1014,7 hPa 0,0 l/m 1,4 km/h (1 Bft) W 262 1 min 0,458 mm 529 W/m 13,2 C 23,7 C 4,8 km/h (1 Bft)
19.07.2019 12:59 23,9 C 52 % 1014,7 hPa 0,0 l/m 8,5 km/h (2 Bft) SW 226 1 min 0,000 mm 529 W/m 13,4 C 23,9 C 12,9 km/h (3 Bft)
19.07.2019 12:58 24,0 C 52 % 1014,7 hPa 0,0 l/m 7,5 km/h (2 Bft) SW 229 1 min 0,000 mm 529 W/m 13,5 C 24,0 C 12,9 km/h (3 Bft)
19.07.2019 12:57 24,1 C 52 % 1014,6 hPa 0,0 l/m 11,8 km/h (2 Bft) S-SW 213 1 min 0,000 mm 559 W/m 13,6 C 24,1 C 12,9 km/h (3 Bft)
19.07.2019 12:56 24,1 C 52 % 1014,6 hPa 0,0 l/m 7,0 km/h (2 Bft) W-SW 238 1 min 0,000 mm 649 W/m 13,6 C 24,1 C 8,0 km/h (2 Bft)
19.07.2019 12:55 24,2 C 53 % 1014,6 hPa 0,0 l/m 9,1 km/h (2 Bft) S-SW 193 1 min 0,000 mm 610 W/m 14,0 C 24,2 C 11,3 km/h (2 Bft)
19.07.2019 12:54 24,2 C 53 % 1014,6 hPa 0,0 l/m 10,2 km/h (2 Bft) S-SW 198 1 min 0,000 mm 754 W/m 14,0 C 24,2 C 16,1 km/h (3 Bft)
19.07.2019 12:53 24,1 C 53 % 1014,6 hPa 0,0 l/m 8,8 km/h (2 Bft) SW 229 1 min 0,000 mm 754 W/m 13,9 C 24,1 C 11,3 km/h (2 Bft)
19.07.2019 12:52 24,1 C 52 % 1014,6 hPa 0,0 l/m 11,9 km/h (2 Bft) S-SW 202 1 min 0,000 mm 754 W/m 13,6 C 24,1 C 16,1 km/h (3 Bft)
19.07.2019 12:51 24,2 C 54 % 1014,6 hPa 0,0 l/m 9,7 km/h (2 Bft) S-SW 202 1 min 0,000 mm 666 W/m 14,3 C 24,2 C 16,1 km/h (3 Bft)
19.07.2019 12:50 24,1 C 51 % 1014,6 hPa 0,0 l/m 3,6 km/h (1 Bft) W-SW 254 1 min 0,000 mm 691 W/m 13,3 C 24,1 C 6,4 km/h (2 Bft)
_ Min-Zeit 06:28 18:10 18:21 - 03:46 - - - - - 18:49 06:28 03:46
Minimum _ 15,3 C 36 % 1010,3 hPa - 0,0 km/h (0 Bft) - - - - - 9,1 C 15,3 C 0,0 km/h (0 Bft)
_ Max-Zeit 16:27 06:48 11:18 15:00 12:23 - - 12:04 13:00 12:04 14:31 16:27 15:47
Maximum _ 26,0 C 83 % 1014,8 hPa 0,0 l/m 17,7 km/h
S-SW (3 Bft)
- - 3 min 0,458 mm 935 W/m 14,9 C 26,0 C 25,7 km/h
W-SW (4 Bft)
Durchschnitt _ 21,1 C 55 % 1012,6 hPa #0,0 l/m 6,6 km/h (2 Bft) NW - #4:35 h #2,464 mm 376 W/m 11,4 C 21,1 C 8,9 km/h (2 Bft)
Wetterstation Eggerszell